Temp
3 3 2 2 1 1 1 1 1 0 0 0 0 -0 -0 -0 -1 -1 -1 -1 -1 -1 -1 -1 -2 -2 -2 -2 -2 -2 -1 -1 -1 -1 -1 -1 -2 -2
2 2 2 1 1 1 1 0 0 0 -0 -0 -0 -0 -1 -1 -1 -1 -2 -2 -2 -2 -2 -2 -2 -2 -2 -2 -2 -2 -2 -2 -2 -2 -3 -3 -3 -3
2 1 2 1 0 0 0 -0 -0 -1 -1 -1 -1 -1 -1 -2 -2 -2 -2 -2 -2 -3 -3 -3 -3 -3 -3 -3 -3 -3 -3 -3 -3 -3 -4 -4 -4 -5
1 1 1 0 0 -0 -0 -1 -1 -1 -1 -1 -2 -2 -2 -2 -2 -2 -3 -3 -3 -3 -3 -3 -3 -3 -3 -3 -3 -3 -4 -4 -4 -5 -4 -5 -6 -7
1 0 0 -0 -0 -1 -1 -1 -1 -1 -2 -2 -2 -2 -3 -3 -3 -3 -3 -4 -4 -4 -4 -4 -4 -4 -4 -4 -4 -4 -5 -5 -6 -6 -7 -7 -8 -8
-0 0 -0 -0 -1 -1 -1 -2 -1 -2 -2 -2 -3 -3 -3 -4 -4 -4 -4 -4 -4 -4 -4 -4 -4 -5 -5 -5 -5 -6 -6 -6 -7 -7 -7 -7 -9 -9
0 0 -0 -0 -1 -1 -1 -2 -2 -2 -3 -3 -3 -4 -4 -4 -4 -5 -5 -5 -5 -5 -5 -5 -5 -5 -6 -6 -6 -6 -7 -7 -8 -8 -8 -9 -10 -11
-1 -1 -1 -1 -1 -1 -2 -2 -3 -3 -3 -4 -4 -4 -4 -5 -5 -5 -5 -6 -5 -6 -6 -6 -6 -6 -7 -7 -7 -7 -8 -8 -8 -9 -10 -11 -11 -11
-1 -2 -2 -1 -2 -2 -2 -3 -3 -4 -4 -4 -5 -5 -5 -5 -6 -6 -6 -6 -6 -6 -6 -7 -7 -7 -8 -8 -8 -9 -9 -9 -10 -11 -11 -11 -12 -12
-2 -3 -2 -2 -2 -3 -3 -4 -4 -5 -5 -6 -6 -6 -6 -6 -7 -6 -6 -6 -6 -7 -7 -7 -8 -8 -9 -9 -9 -10 -10 -11 -11 -12 -12 -13 -13 -14
-2 -2 -3 -3 -3 -3 -4 -4 -5 -5 -6 -7 -6 -6 -7 -7 -7 -7 -7 -7 -7 -7 -7 -7 -8 -8 -9 -9 -10 -10 -11 -12 -12 -13 -14 -14 -14 -14
-1 -2 -2 -2 -3 -4 -5 -5 -5 -6 -7 -7 -7 -7 -7 -7 -7 -7 -8 -8 -8 -8 -8 -8 -8 -8 -8 -10 -11 -11 -12 -12 -13 -14 -15 -15 -15 -15
-2 -2 -4 -4 -4 -5 -5 -5 -6 -7 -7 -7 -7 -7 -8 -8 -8 -8 -8 -8 -8 -8 -9 -9 -9 -9 -10 -9 -11 -12 -12 -13 -13 -14 -14 -15 -16 -16
-3 -3 -4 -5 -5 -5 -5 -6 -7 -7 -7 -8 -8 -8 -8 -8 -8 -9 -9 -8 -9 -9 -9 -9 -10 -10 -11 -11 -12 -12 -13 -14 -14 -14 -14 -15 -16 -16
-3 -3 -3 -4 -5 -4 -6 -6 -7 -8 -8 -8 -8 -8 -8 -9 -9 -10 -9 -9 -9 -10 -10 -11 -11 -12 -12 -12 -13 -13 -14 -14 -14 -15 -15 -16 -16 -17
-3 -3 -4 -4 -3 -4 -5 -6 -7 -9 -9 -8 -9 -9 -9 -9 -10 -11 -10 -10 -10 -10 -11 -11 -12 -12 -13 -14 -14 -14 -14 -14 -15 -15 -15 -16 -17 -17
-3 -3 -3 -4 -3 -5 -5 -6 -8 -9 -9 -9 -9 -9 -10 -11 -12 -11 -10 -10 -11 -11 -12 -12 -13 -13 -14 -14 -15 -15 -14 -15 -15 -15 -15 -15 -16 -17
-3 -3 -3 -4 -5 -5 -6 -8 -8 -9 -10 -9 -10 -10 -11 -13 -12 -11 -11 -11 -11 -12 -12 -13 -13 -13 -14 -14 -15 -15 -15 -15 -15 -16 -16 -16 -16 -17
-4 -4 -4 -5 -6 -7 -8 -9 -9 -10 -10 -10 -10 -10 -12 -13 -11 -11 -11 -12 -12 -12 -13 -13 -14 -14 -14 -14 -15 -16 -16 -16 -15 -16 -16 -17 -17 -17
-4 -5 -5 -6 -7 -8 -9 -10 -10 -10 -10 -11 -11 -11 -13 -11 -11 -12 -12 -12 -13 -13 -13 -14 -14 -14 -15 -15 -15 -16 -17 -17 -17 -17 -16 -16 -17 -18
-4 -5 -5 -7 -8 -9 -10 -10 -11 -11 -11 -11 -11 -12 -12 -12 -12 -12 -12 -13 -13 -13 -14 -14 -15 -15 -15 -15 -16 -16 -16 -17 -18 -18 -18 -17 -17 -17
-5 -6 -7 -8 -9 -10 -11 -11 -11 -11 -11 -12 -12 -12 -12 -12 -12 -13 -13 -13 -13 -14 -14 -15 -15 -15 -16 -16 -16 -16 -16 -16 -17 -18 -19 -19 -19 -19
-7 -7 -9 -10 -10 -11 -11 -11 -11 -11 -12 -12 -12 -12 -12 -12 -13 -13 -13 -14 -14 -14 -14 -15 -15 -16 -16 -16 -16 -16 -16 -16 -17 -17 -17 -18 -19 -19
Height
3156 3159 3163 3165 3167 3169 3171 3172 3173 3173 3173 3173 3174 3173 3172 3171 3169 3167 3165 3162 3160 3156 3152 3148 3144 3140 3135 3131 3127 3122 3117 3113 3108 3102 3095 3090 3083 3077
3152 3156 3158 3161 3163 3165 3166 3167 3168 3169 3170 3170 3170 3170 3168 3167 3165 3163 3161 3158 3155 3151 3147 3142 3138 3133 3129 3124 3120 3115 3111 3105 3100 3094 3087 3080 3073 3066
3147 3150 3155 3157 3159 3161 3163 3164 3165 3166 3166 3166 3166 3165 3164 3162 3161 3159 3157 3153 3150 3145 3141 3136 3131 3126 3122 3118 3113 3109 3104 3098 3092 3085 3078 3071 3065 3058
3144 3147 3151 3153 3156 3157 3158 3160 3161 3161 3162 3162 3161 3161 3160 3158 3156 3154 3152 3147 3144 3139 3135 3131 3125 3121 3116 3112 3107 3102 3096 3090 3084 3076 3068 3063 3055 3048
3139 3143 3147 3148 3151 3152 3154 3156 3157 3157 3158 3158 3157 3156 3155 3153 3151 3149 3145 3141 3137 3133 3129 3124 3119 3115 3110 3104 3100 3094 3088 3082 3075 3067 3060 3053 3046 3039
3135 3138 3141 3143 3146 3148 3149 3151 3152 3152 3153 3153 3151 3150 3150 3148 3145 3143 3140 3136 3132 3127 3123 3118 3113 3109 3104 3099 3093 3087 3080 3074 3067 3059 3052 3044 3038 3033
3129 3133 3136 3139 3141 3143 3145 3146 3147 3148 3148 3147 3146 3145 3144 3142 3140 3137 3134 3130 3126 3121 3117 3113 3109 3104 3099 3093 3087 3081 3075 3067 3060 3053 3046 3038 3031 3025
3123 3127 3130 3133 3135 3138 3140 3141 3142 3143 3143 3143 3142 3140 3138 3136 3134 3131 3128 3124 3120 3118 3112 3108 3104 3099 3093 3088 3081 3075 3068 3062 3056 3048 3040 3032 3025 3019
3118 3122 3124 3127 3130 3132 3134 3135 3136 3137 3137 3137 3137 3135 3133 3131 3129 3125 3122 3119 3115 3111 3108 3105 3100 3094 3089 3083 3077 3070 3064 3058 3051 3043 3034 3027 3021 3014
3112 3115 3119 3121 3124 3126 3128 3129 3130 3130 3131 3130 3130 3128 3127 3125 3122 3119 3115 3112 3108 3105 3102 3100 3097 3091 3086 3079 3073 3067 3060 3052 3045 3037 3029 3021 3015 3009
3106 3110 3113 3115 3118 3120 3122 3123 3123 3123 3124 3123 3123 3122 3121 3119 3116 3113 3109 3106 3103 3100 3097 3093 3089 3087 3081 3075 3068 3061 3054 3047 3040 3033 3026 3017 3009 3003
3100 3104 3105 3110 3112 3113 3115 3115 3116 3116 3117 3116 3115 3115 3115 3113 3110 3107 3103 3100 3097 3094 3092 3088 3081 3074 3069 3068 3060 3054 3049 3041 3034 3027 3020 3011 3001 2994
3095 3098 3101 3104 3104 3106 3107 3108 3109 3110 3109 3109 3108 3109 3109 3106 3103 3101 3098 3095 3092 3089 3085 3081 3076 3070 3064 3056 3054 3047 3040 3033 3026 3019 3013 3005 2995 2987
3089 3092 3095 3096 3097 3099 3100 3101 3102 3102 3102 3102 3102 3103 3102 3100 3098 3095 3093 3090 3087 3084 3079 3075 3071 3064 3057 3051 3046 3041 3035 3027 3019 3012 3004 2998 2991 2983
3082 3086 3086 3089 3091 3091 3092 3094 3094 3095 3094 3096 3097 3096 3095 3093 3091 3090 3088 3086 3082 3078 3073 3069 3065 3060 3053 3047 3040 3034 3026 3022 3014 3005 2998 2993 2984 2976
3076 3077 3079 3082 3083 3084 3085 3086 3086 3087 3090 3091 3091 3089 3088 3086 3085 3085 3083 3080 3077 3073 3069 3065 3061 3055 3051 3044 3036 3031 3025 3016 3011 3003 2995 2989 2982 2973
3070 3071 3073 3075 3076 3077 3078 3078 3080 3083 3084 3084 3084 3083 3081 3079 3080 3080 3078 3076 3072 3069 3065 3061 3057 3053 3047 3040 3034 3028 3022 3015 3007 2999 2991 2983 2977 2967
3064 3065 3068 3069 3071 3072 3073 3074 3076 3077 3077 3077 3077 3076 3075 3075 3077 3076 3074 3071 3068 3065 3062 3058 3054 3051 3047 3042 3032 3023 3018 3009 3001 2994 2985 2976 2970 2964
3058 3060 3062 3063 3065 3066 3067 3069 3070 3071 3071 3071 3071 3071 3071 3073 3073 3072 3070 3067 3064 3061 3057 3053 3049 3043 3038 3033 3031 3020 3011 3005 2997 2990 2980 2972 2964 2958
3052 3054 3055 3056 3058 3059 3062 3064 3065 3065 3065 3066 3066 3066 3068 3069 3069 3067 3065 3063 3060 3057 3054 3049 3044 3038 3032 3026 3020 3016 3008 2999 2992 2983 2975 2968 2960 2955
3047 3048 3049 3050 3052 3054 3056 3058 3059 3060 3061 3062 3062 3064 3065 3065 3064 3063 3061 3058 3056 3054 3051 3046 3040 3035 3028 3023 3017 3012 3006 2998 2988 2978 2969 2961 2951 2944
3040 3042 3043 3045 3047 3049 3052 3054 3055 3056 3057 3058 3060 3061 3062 3061 3060 3058 3057 3054 3052 3049 3046 3041 3036 3031 3025 3018 3012 3006 2999 2994 2987 2981 2970 2960 2948 2937
3035 3037 3039 3041 3044 3046 3049 3051 3052 3053 3054 3056 3058 3058 3058 3057 3056 3054 3052 3051 3048 3045 3041 3036 3031 3026 3020 3013 3007 3000 2993 2986 2979 2973 2969 2961 2953 2944
Wind_Speed
26 25 24 22 20 19 17 16 15 15 14 15 15 15 17 18 20 21 24 27 28 30 34 36 37 37 38 38 37 37 38 40 42 44 45 46 47 49
27 26 25 24 23 22 20 19 18 17 15 16 16 19 19 20 21 24 26 28 32 35 37 37 38 39 37 36 36 38 40 41 43 44 45 46 49 50
29 27 26 25 24 23 22 21 19 18 17 17 19 20 21 21 23 25 29 32 35 38 38 38 38 36 35 35 37 38 40 41 42 44 46 47 48 48
26 26 27 25 25 24 23 22 21 20 19 20 21 22 22 23 25 28 31 35 39 39 38 38 37 36 35 35 37 39 40 42 44 45 48 48 48 48
27 27 25 26 26 25 24 24 23 22 22 22 23 24 24 25 27 30 34 37 39 36 37 36 36 36 38 39 39 41 42 44 46 46 47 48 49 49
26 28 28 28 28 28 26 25 25 24 23 23 24 26 26 27 29 32 35 38 36 35 36 34 35 35 37 39 41 41 43 45 46 48 49 51 50 48
25 30 29 29 30 30 28 27 26 25 25 25 26 27 27 29 31 36 38 37 34 33 34 33 34 35 36 38 40 42 44 45 47 48 48 48 47 46
28 29 30 30 31 31 28 28 27 26 25 26 28 29 30 31 36 39 38 34 33 30 29 31 32 33 35 36 39 42 43 43 44 44 45 45 45 44
29 30 31 31 30 29 28 27 27 26 25 28 32 30 32 34 38 36 35 32 31 29 27 28 30 31 33 34 37 39 41 41 42 42 44 44 43 42
33 32 33 31 30 29 27 27 28 27 30 31 32 33 34 37 37 33 32 31 29 27 28 27 26 29 31 35 37 37 39 40 40 41 42 43 42 40
29 30 30 32 31 30 28 30 32 39 32 31 35 37 38 36 33 32 30 28 27 27 27 30 32 29 30 33 37 37 37 37 37 37 37 39 41 39
30 33 33 35 34 31 35 38 39 34 32 36 37 39 35 33 32 31 28 26 26 26 27 29 33 38 41 35 36 38 38 37 37 36 35 36 39 39
31 33 34 35 35 41 41 39 33 33 36 37 40 37 34 32 30 29 25 24 25 26 27 29 32 35 37 42 38 39 40 39 39 39 36 34 37 38
31 31 33 38 36 36 34 31 34 39 38 39 39 35 32 30 28 24 23 23 25 27 29 31 32 35 37 39 40 40 40 40 41 40 41 38 34 36
31 36 37 33 37 37 31 36 40 39 42 39 37 34 31 27 23 18 20 23 25 27 29 30 31 31 34 37 40 40 43 43 44 45 45 42 36 35
35 33 34 40 37 34 36 39 42 43 40 38 34 32 29 24 17 15 20 23 24 25 27 28 28 30 31 34 38 39 40 44 44 44 46 44 34 31
32 39 39 36 32 36 39 41 38 37 34 30 32 28 24 14 12 17 20 21 22 23 25 27 27 27 30 34 37 39 40 42 43 44 46 46 39 32
27 31 32 36 33 36 36 32 33 29 26 29 25 23 15 10 14 17 18 19 21 22 23 25 27 28 29 29 34 39 39 41 43 44 46 48 43 33
28 27 24 23 24 26 25 26 24 22 23 22 22 17 7 10 15 16 17 18 20 22 24 27 30 33 35 36 34 36 41 40 43 43 46 47 46 38
28 27 25 24 22 21 22 19 19 20 20 19 15 6 8 14 14 15 16 17 18 21 24 29 32 34 36 38 40 37 37 40 42 44 44 46 45 38
30 28 26 24 22 19 16 18 18 17 16 15 6 8 12 13 14 15 16 17 19 22 25 28 30 33 35 37 37 38 36 36 38 41 44 46 47 46
28 26 22 19 17 16 16 16 15 15 13 5 9 11 12 13 14 15 16 17 21 24 27 28 30 32 34 36 38 39 39 37 36 33 34 38 43 46
22 20 18 16 15 15 14 13 14 10 7 10 11 11 12 13 14 15 16 19 23 26 28 29 31 32 33 36 38 39 40 40 40 39 33 33 33 31
Wind_Direction
224 228 231 232 235 239 244 249 256 263 272 282 289 293 297 299 302 307 309 311 315 317 317 316 316 318 318 319 320 321 322 323 323 322 322 321 322 321
224 229 231 231 234 238 242 248 255 263 271 280 289 293 294 297 301 306 309 313 316 318 318 318 319 319 320 320 322 323 324 324 323 323 324 326 326 325
225 225 234 234 235 239 246 251 256 265 272 279 285 288 291 296 302 304 308 314 317 318 318 318 319 319 320 322 324 325 323 323 325 327 327 327 325 325
230 233 234 237 240 241 246 252 259 266 272 279 284 289 293 298 301 305 311 314 319 318 319 319 319 320 321 323 324 325 324 328 329 329 330 328 327 328
232 234 235 238 239 242 248 254 260 267 272 279 284 288 294 297 301 307 312 319 319 317 319 320 320 321 324 325 326 327 331 330 333 332 330 329 328 329
234 235 234 236 241 243 246 252 259 264 272 279 283 288 292 296 300 306 315 318 316 317 318 320 320 322 323 327 330 331 332 333 333 332 332 329 328 328
235 234 232 239 243 246 249 253 259 265 271 277 282 286 290 294 300 309 313 314 313 316 318 321 319 323 326 329 330 331 332 334 333 331 329 327 329 330
237 239 237 239 242 248 250 255 259 264 271 278 283 286 289 291 302 307 311 310 313 314 316 318 319 324 327 329 330 331 333 332 329 328 328 327 329 330
234 238 239 238 244 249 251 254 257 263 270 279 282 284 287 292 302 307 310 309 311 313 315 317 320 324 326 328 329 330 330 331 329 328 327 327 329 330
235 234 236 239 244 247 248 252 255 258 271 273 277 280 286 295 302 304 307 307 309 312 314 316 320 323 327 328 328 330 331 331 330 328 327 327 327 328
232 237 236 239 241 244 245 248 251 264 268 268 277 278 289 296 300 303 306 307 309 312 315 317 320 325 329 329 329 334 335 332 328 327 326 323 321 325
233 236 237 245 245 237 248 250 258 264 264 270 273 281 292 297 299 304 304 306 309 312 316 322 325 327 328 335 336 336 336 334 332 329 328 324 322 327
238 241 245 248 239 252 257 261 255 258 265 269 275 285 293 295 299 301 302 307 309 314 320 325 328 329 330 330 339 340 342 339 336 335 331 331 328 328
237 242 239 243 257 261 254 253 256 263 268 265 278 286 289 293 296 295 302 306 311 317 323 329 332 333 334 335 339 343 346 346 342 340 339 341 330 326
235 242 247 245 249 252 250 252 257 262 259 271 279 284 286 287 288 295 304 307 312 319 327 332 335 338 337 338 342 347 347 346 345 345 341 346 338 327
241 252 248 245 256 260 261 256 256 261 268 276 281 283 282 282 285 304 300 303 314 322 327 331 334 338 340 340 339 343 343 341 344 343 340 345 344 330
259 259 253 253 261 257 257 256 260 270 273 275 278 279 278 277 292 292 297 307 317 323 326 330 336 337 338 337 335 334 338 338 339 341 338 343 349 337
264 255 251 260 264 271 271 268 271 273 277 278 274 272 265 277 287 291 301 310 318 321 324 328 329 329 329 332 333 331 336 337 337 339 340 341 346 343
254 258 251 260 265 264 268 266 268 273 273 270 273 263 259 286 283 292 303 313 317 322 326 328 327 329 332 334 336 336 334 336 335 338 338 340 342 343
241 241 247 253 257 258 255 260 264 266 265 267 253 245 279 274 286 298 306 312 318 324 326 326 328 331 332 333 335 337 335 335 336 337 339 338 337 342
241 250 255 253 247 248 252 257 261 260 264 247 240 265 265 278 292 300 306 314 320 323 324 326 327 330 330 330 332 333 334 336 338 339 337 337 337 338
244 249 243 239 241 241 246 247 251 253 232 237 251 257 272 285 294 301 308 315 318 321 324 325 327 328 328 329 331 331 332 334 336 339 339 337 335 336
244 241 234 230 228 228 231 240 235 223 233 241 250 264 277 287 295 301 309 312 317 320 323 325 326 326 327 327 329 330 331 333 335 336 341 339 337 334